User: anonymous   Login
Location: Fort Wayne
(41.1310°N, 85.1290°W)
Time: 05:22:41
(UTC-04:00)
Language:

Tiros 1 despin weight - Orbit

View from above orbital plane
View from above orbital plane
View from above satellite
View from above satellite

Ground track
Ground track

The orbit data is extracted from the following two-line orbital elements,

1 00115U 60002D   15086.18695778  .00002273  00000-0  30933-3 0  9991
2 00115 048.1661 087.6158 0034577 120.9453 239.4865 14.81819346929585
Epoch (UTC): 27 March 2015 04:29:13
Eccentricity: 0.0034577
inclination: 48.1661°
perigee height: 599 km
apogee height: 648 km
right ascension of ascending node: 87.6158°
argument of perigee: 120.9453°
revolutions per day: 14.81819346
mean anomaly at epoch: 239.4865°
orbit number at epoch: 92958

The dashed part of the orbit path shows where the satellite is in the earth's shadow,  

DLR